Location: Unspecified
(0.0000°N, 0.0000°E)
Time: 17:11:38
(UTC+02:00)

Daily predictions for brighter satellites

Satellite Brightness Start Highest point End
(mag) Time Altitude Azimuth Time Altitude Azimuth Time Altitude Azimuth
Cosmos 1605 Rocket 4.1 20:19:05 10° S 20:25:09 59° E 20:31:17 10° NNE
Milstar 3 3.2 20:18:03 10° SW 20:26:49 57° SSE 20:33:17 10° ENE
NOSS 3-4 (A) 4.0 20:22:04 10° NNW 20:29:38 84° ENE 20:37:28 10° SSE
NOSS 3-4 (C) 4.0 20:22:11 10° NNW 20:29:45 83° ENE 20:37:34 10° SSE
Meteor 1-24 Rocket 4.4 20:25:29 10° NNE 20:30:39 34° E 20:35:58 10° SSE
YAOGAN 1 3.9 20:26:51 10° S 20:30:59 44° WSW 20:35:06 10° NNW
Cosmos 1271 Rocket 3.7 20:37:22 10° SSE 20:40:43 26° E 20:44:04 10° NE
COSMOS 2406 3.2 20:35:34 10° N 20:41:12 68° ENE 20:46:49 10° SSE
Ariane H10 2.3 20:38:28 10° WNW 20:41:22 75° N 20:48:09 13° E
Cosmos 1707 3.1 20:39:18 10° N 20:43:07 68° W 20:46:56 10° S
Cosmos 2369 Rocket 3.5 20:39:46 10° SSE 20:43:37 19° ESE 20:47:26 10° ENE
Cosmos 192 4.4 20:39:34 10° NNW 20:44:27 87° WSW 20:49:21 10° SSE
Ariane H10-3 3.1 20:41:34 10° WSW 20:44:48 60° S 20:55:49 14° E
GPS 2-18 Rocket1 4.3 20:43:36 10° SW 20:46:53 27° SSE 20:49:10 16° ESE
Cosmos 1758 3.3 20:44:40 10° S 20:48:39 89° W 20:52:36 10° N
USA 234 3.3 20:42:35 10° SE 20:49:11 86° SW 20:55:44 10° NW
Meteor 1-4 Rocket 2.9 20:46:04 10° SSW 20:49:34 66° W 20:53:00 10° N
ARIANE 44P R/B 2.5 20:47:58 10° W 20:52:03 43° S 20:53:33 18° SE
Cosmos 1953 2.4 20:50:16 10° S 20:54:22 83° W 20:58:25 10° N
SL-8 R/B 4.4 20:53:03 10° SSW 20:57:25 33° SE 21:00:01 20° ENE
ERBS 3.4 20:55:09 10° S 20:58:02 25° ESE 20:58:35 24° ESE
NOAA 12 4.1 20:53:06 10° SSE 20:58:25 68° ENE 21:03:40 10° N
ARIANE 5 DEB (SYLDA) 3.0 20:58:10 10° W 21:02:08 38° SSW 21:02:58 26° SE
Cosmos 2123 Rocket 4.0 20:58:14 10° N 21:04:23 60° E 21:10:29 10° SSE
Ariane H10+ 3.6 21:00:44 10° W 21:06:10 64° N 21:19:28 19° ENE
Cosmos 2061 Rocket 4.2 21:07:04 10° SSE 21:13:09 50° E 21:19:16 10° NNE
Cosmos 1459 Rocket 4.0 21:07:17 10° S 21:13:29 56° E 21:19:35 10° NNE
deb Ariane 3.9 21:19:04 10° NW 21:20:58 29° N 21:20:58 29° N
Cosmos 2173 Rocket 3.8 21:16:40 10° S 21:22:43 67° E 21:28:49 10° N
ARIANE 5 DEB (SYLDA) 3.8 21:22:53 10° WNW 21:23:39 20° NW 21:23:39 20° NW
Palapa 6 Rocket 4.1 21:20:41 10° WNW 21:28:15 80° SSW 21:31:09 36° ESE
HJ-1C 4.1 21:29:22 42° N 21:29:22 42° N 21:31:42 10° N
FALCON 9 R/B 2.4 21:25:20 10° WSW 21:29:35 30° NW 21:30:29 25° N
NATO 3D Rocket 4.5 21:25:29 10° NW 21:31:39 60° NNE 21:34:53 37° E
Cosmos 1733 4.0 21:30:03 10° SSW 21:33:47 51° W 21:37:30 10° N
ARIANE 44LP R/B 4.3 21:29:52 10° W 21:34:21 76° S 21:42:55 31° ESE
ARIANE 44LP R/B 4.3 21:29:52 10° W 21:34:21 76° S 21:42:54 31° ESE
ARIANE 44LP R/B 4.3 21:29:53 10° W 21:34:22 76° S 21:42:53 31° ESE
ARIANE 44LP R/B 4.3 21:29:52 10° W 21:34:22 76° S 21:42:55 31° ESE
Helios 1B rocket 2.7 21:31:12 10° N 21:35:16 67° WNW 21:39:21 10° SSW
ARIANE 5 DEB (SYLDA) 3.0 21:31:26 10° W 21:35:46 74° S 21:36:08 66° SE
Cosmos 1470 4.2 21:35:51 10° SSW 21:39:35 39° W 21:43:18 10° NNW
Cosmos 1447 Rocket 4.3 21:34:54 10° N 21:41:00 67° E 21:47:11 10° S
FengYun 1-2 T 4.1 21:37:07 10° SSE 21:42:40 89° WSW 21:48:14 10° NNW
Meteor 1-16 Rocket 4.1 21:45:14 10° S 21:50:55 89° E 21:56:45 10° N
Cosmos 2016 Rocket 3.9 21:48:41 10° S 21:55:02 86° W 22:01:15 10° N
RESURS DK-1 3.9 21:54:34 10° NW 21:58:18 33° WSW 21:59:01 31° SW
Cosmos 2082 Rocket 4.4 21:55:21 10° N 21:55:52 13° N 21:55:52 13° N
ALOS 3.8 21:56:48 10° SSW 22:01:02 34° WSW 22:05:15 10° NW
CZ-4C R/B 3.9 21:59:08 10° WSW 22:03:16 26° WNW 22:07:28 10° N
Spot 2 Rocket 4.2 22:05:44 48° NNW 22:05:44 48° NNW 22:09:26 10° NNW
ARIANE 5 R/B 4.0 22:00:53 10° W 22:05:50 89° N 23:18:42 10° E
Resurs 01 Rocket 4.0 22:23:12 19° NW 22:23:12 19° NW 22:24:39 10° NW
Cosmos 2369 Rocket 3.9 22:22:27 10° SW 22:27:22 30° WNW 22:30:57 16° NNW
Ariane H10 4.1 21:46:00 10° W 22:32:04 78° N 22:32:50 74° NE
ATLAS 3B R/B 4.0 22:31:49 10° SSW 22:35:43 34° SSW 22:35:43 34° SSW
